User: anonymous   Login
Location: Unspecified
(0.0000°N, 0.0000°E)
Time: 01:14:59
(UTC+00:00)
Language:

Sunsat (SO-35) - Orbit

View from above orbital plane
View from above orbital plane
View from above satellite
View from above satellite

Ground track
Ground track

The orbit data is extracted from the following two-line orbital elements,

1 25636U 99008C   24201.59490034  .00000736  00000-0  19085-3 0  9993
2 25636  96.4530 231.9212 0144327  26.8704 333.9875 14.45611376338414
Epoch (UTC): 19 July 2024 14:16:39
Eccentricity: 0.0144327
inclination: 96.4530°
perigee height: 637 km
apogee height: 843 km
right ascension of ascending node: 231.9212°
argument of perigee: 26.8704°
revolutions per day: 14.45611376
mean anomaly at epoch: 333.9875°
orbit number at epoch: 33841

The dashed part of the orbit path shows where the satellite is in the earth's shadow,  

DLR